Location: Iowa City
(41.6610°N, 91.5300°W)
Time: 22:41:08
(UTC-05:00)

ISS - Visible Passes

Search period start: 20 October 2014 00:00
Search period end: 30 October 2014 00:00
Orbit: 413 x 416 km, 51.6° (Epoch: 20 October)

Date Brightness Start Highest point End Pass type
(mag) Time Alt. Az. Time Alt. Az. Time Alt. Az.
20 Oct -1.3 20:17:17 10° NW 20:18:59 24° NNW 20:18:59 24° NNW visible
21 Oct -1.9 19:28:23 10° NW 19:31:14 25° NNE 19:31:58 23° NE visible
22 Oct -1.5 18:39:26 10° NW 18:41:59 20° NNE 18:44:32 10° ENE visible
22 Oct -1.8 20:15:46 10° NW 20:17:52 36° NW 20:17:52 36° NW visible
23 Oct -2.9 19:26:44 10° NW 19:29:59 47° NNE 19:30:57 35° ENE visible
24 Oct -2.3 18:37:42 10° NW 18:40:45 32° NNE 18:43:47 10° E visible
24 Oct -1.8 20:14:22 10° WNW 20:17:01 35° WSW 20:17:01 35° WSW visible
25 Oct -3.0 19:25:04 10° WNW 19:28:23 68° SW 19:30:19 23° SE visible
26 Oct -3.3 18:35:52 10° NW 18:39:12 69° NNE 18:42:31 10° ESE visible
26 Oct -0.5 20:13:40 10° W 20:15:30 14° SW 20:16:42 12° SSW visible
27 Oct -1.0 19:23:41 10° WNW 19:26:27 24° SW 19:29:13 10° S visible
28 Oct -2.0 18:34:07 10° WNW 18:37:18 43° SW 18:40:28 10° SSE visible
